Location: Gro�sch�nbrunn
(49.5760°N, 11.8868°E)
Time: 03:52:25
(UTC+00:00)

Meteor 1-21 - Pass Details

Date: 18 September 2020
Orbit: 845 x 887 km, 81.2° (Epoch: 18 October)

Event Time Altitude Azimuth Distance (km) Brightness Sun altitude
Rises 18:12:32 0° 346° (NNW) 3,433 7.8 -9.5°
Reaches altitude 10° 18:14:58 10° 346° (NNW) 2,488 7.0 -9.9°
Maximum altitude 18:20:36 78° 261° (W) 870 4.4 -10.8°
Drops below altitude 10° 18:26:10 10° 176° (S) 2,461 6.4 -11.6°
Sets 18:28:34 0° 175° (S) 3,392 7.1 -12.0°
